When you browse on this site, cookies collect data to enhance your experience and personalize the content and advertising you see.
Visit our Privacy Policy to learn more. By continuing to use the site, you agree to this use of cookies and data.
  • In Romania
  • List of Countries
  • For 7 days
  • Water Temperature
  • Satellite Maps
  • Weather Map
  • Weather Widgets
  • user-avatar
    Login

    Hourly Weather Gubin

    Today, 24 May, Friday

    Time Temperature Precipitation Wind Pressure Humidity
    00:00 +11°C° 0 mm 1 mps 758 mmHg 78%
    01:00 +9°C° 0 mm 0 mps 758 mmHg 79%
    02:00 +10°C° 0 mm 1 mps 758 mmHg 80%
    03:00 +10°C° 0 mm 1 mps 758 mmHg 80%
    04:00 +10°C° 0 mm 1 mps 758 mmHg 81%
    05:00 +11°C° 0 mm 1 mps 758 mmHg 75%
    06:00 +13°C° 0 mm 1 mps 758 mmHg 68%
    07:00 +15°C° 0 mm 1 mps 758 mmHg 62%
    08:00 +18°C° 0 mm 1 mps 757 mmHg 55%
    09:00 +20°C° 0 mm 1 mps 757 mmHg 49%
    10:00 +22°C° 0 mm 1 mps 757 mmHg 42%
    11:00 +23°C° 0 mm 1 mps 757 mmHg 40%
    12:00 +23°C° 0 mm 1 mps 756 mmHg 39%
    13:00 +24°C° 0 mm 2 mps 756 mmHg 37%
    14:00 +24°C° 0 mm 2 mps 756 mmHg 39%
    15:00 +24°C° 0 mm 2 mps 755 mmHg 42%
    16:00 +24°C° 0 mm 2 mps 755 mmHg 44%
    17:00 +23°C° 0 mm 2 mps 755 mmHg 50%
    18:00 +21°C° 0 mm 2 mps 754 mmHg 57%
    19:00 +21°C° 0 mm 1 mps 754 mmHg 63%
    20:00 +18°C° 0 mm 2 mps 754 mmHg 67%
    21:00 +17°C° 0 mm 2 mps 754 mmHg 72%
    22:00 +15°C° 0 mm 2 mps 755 mmHg 76%
    23:00 +14°C° 0 mm 2 mps 755 mmHg 80%

    Tomorrow, 25 May, Saturday

    Time Temperature Precipitation Wind Pressure Humidity
    00:00 +14°C° 0 mm 2 mps 755 mmHg 83%
    01:00 +13°C° 0 mm 2 mps 755 mmHg 87%
    02:00 +13°C° 0 mm 2 mps 755 mmHg 90%
    03:00 +12°C° 0 mm 2 mps 755 mmHg 93%
    04:00 +12°C° 0 mm 2 mps 755 mmHg 96%
    05:00 +13°C° 0 mm 2 mps 755 mmHg 88%
    06:00 +14°C° 0 mm 2 mps 755 mmHg 81%
    07:00 +14°C° 0 mm 3 mps 756 mmHg 73%
    08:00 +16°C° 0 mm 3 mps 756 mmHg 68%
    09:00 +17°C° 0 mm 3 mps 756 mmHg 62%
    10:00 +18°C° 0 mm 4 mps 756 mmHg 56%
    11:00 +19°C° 0 mm 4 mps 756 mmHg 53%
    12:00 +20°C° 0 mm 4 mps 756 mmHg 51%
    13:00 +21°C° 0 mm 4 mps 756 mmHg 48%
    14:00 +21°C° 0 mm 4 mps 756 mmHg 48%
    15:00 +21°C° 0 mm 4 mps 755 mmHg 48%
    16:00 +21°C° 0 mm 4 mps 755 mmHg 48%
    17:00 +20°C° 0 mm 3 mps 755 mmHg 54%
    18:00 +19°C° 0 mm 2 mps 755 mmHg 59%
    19:00 +18°C° 0 mm 2 mps 755 mmHg 64%
    20:00 +16°C° 0 mm 2 mps 755 mmHg 70%
    21:00 +14°C° 0 mm 2 mps 756 mmHg 75%
    22:00 +13°C° 0 mm 2 mps 756 mmHg 81%
    23:00 +12°C° 0 mm 2 mps 756 mmHg 85%

    Day after tomorrow, 26 May, Sunday

    Time Temperature Precipitation Wind Pressure Humidity
    00:00 +12°C° 0 mm 2 mps 756 mmHg 88%
    01:00 +10°C° 0 mm 2 mps 756 mmHg 92%
    02:00 +10°C° 0 mm 2 mps 756 mmHg 94%
    03:00 +9°C° 0 mm 2 mps 756 mmHg 95%
    04:00 +9°C° 0 mm 2 mps 756 mmHg 97%
    05:00 +10°C° 0 mm 3 mps 756 mmHg 91%
    06:00 +11°C° 0 mm 3 mps 756 mmHg 84%
    07:00 +12°C° 0 mm 3 mps 756 mmHg 78%
    08:00 +14°C° 0 mm 4 mps 755 mmHg 70%
    09:00 +15°C° 0 mm 4 mps 755 mmHg 62%
    10:00 +18°C° 0 mm 4 mps 755 mmHg 55%
    11:00 +18°C° 0 mm 4 mps 755 mmHg 54%
    12:00 +19°C° 0 mm 4 mps 755 mmHg 52%
    13:00 +20°C° 0 mm 5 mps 754 mmHg 51%
    14:00 +20°C° 0 mm 5 mps 754 mmHg 51%
    15:00 +21°C° 0 mm 5 mps 754 mmHg 51%
    16:00 +21°C° 0 mm 5 mps 754 mmHg 51%
    17:00 +20°C° 0 mm 4 mps 754 mmHg 57%
    18:00 +19°C° 0 mm 3 mps 753 mmHg 63%
    19:00 +18°C° 0 mm 2 mps 753 mmHg 69%
    20:00 +17°C° 0 mm 2 mps 753 mmHg 75%
    21:00 +16°C° 0 mm 2 mps 753 mmHg 80%
    22:00 +14°C° 0 mm 2 mps 753 mmHg 86%
    23:00 +14°C° 0 mm 2 mps 753 mmHg 86%

    27 May, Monday

    Time Temperature Precipitation Wind Pressure Humidity
    00:00 +13°C° 0 mm 3 mps 753 mmHg 87%
    01:00 +13°C° 0 mm 3 mps 752 mmHg 88%
    02:00 +13°C° 0 mm 3 mps 752 mmHg 85%
    03:00 +13°C° 0 mm 4 mps 752 mmHg 83%
    04:00 +13°C° 0 mm 4 mps 751 mmHg 80%
    05:00 +14°C° 0 mm 4 mps 751 mmHg 77%
    06:00 +15°C° 0 mm 5 mps 751 mmHg 74%
    07:00 +17°C° 0 mm 5 mps 751 mmHg 72%
    08:00 +17°C° 0.1 mm 5 mps 751 mmHg 70%
    09:00 +19°C° 0.1 mm 6 mps 751 mmHg 69%
    10:00 +20°C° 0.1 mm 6 mps 751 mmHg 67%
    11:00 +20°C° 0.1 mm 6 mps 751 mmHg 66%
    12:00 +21°C° 0.1 mm 6 mps 751 mmHg 65%
    13:00 +21°C° 0.1 mm 6 mps 751 mmHg 64%
    14:00 +20°C° 0.1 mm 5 mps 751 mmHg 67%
    15:00 +19°C° 0.1 mm 5 mps 751 mmHg 70%
    16:00 +18°C° 0.1 mm 4 mps 751 mmHg 73%
    17:00 +18°C° 0 mm 3 mps 751 mmHg 74%
    18:00 +18°C° 0 mm 3 mps 751 mmHg 74%
    19:00 +18°C° 0 mm 2 mps 752 mmHg 75%
    20:00 +16°C° 0 mm 2 mps 752 mmHg 81%
    21:00 +15°C° 0 mm 2 mps 752 mmHg 86%
    22:00 +13°C° 0 mm 1 mps 752 mmHg 92%
    23:00 +13°C° 0 mm 1 mps 752 mmHg 92%

    28 May, Tuesday

    Time Temperature Precipitation Wind Pressure Humidity
    00:00 +12°C° 0 mm 1 mps 752 mmHg 93%
    01:00 +12°C° 0 mm 1 mps 752 mmHg 93%
    02:00 +12°C° 0 mm 1 mps 752 mmHg 93%
    03:00 +11°C° 0 mm 1 mps 752 mmHg 94%
    04:00 +11°C° 0 mm 1 mps 752 mmHg 94%
    05:00 +12°C° 0 mm 1 mps 752 mmHg 88%
    06:00 +14°C° 0 mm 1 mps 752 mmHg 82%
    07:00 +15°C° 0 mm 1 mps 751 mmHg 76%
    08:00 +18°C° 0 mm 1 mps 751 mmHg 69%
    09:00 +19°C° 0 mm 1 mps 751 mmHg 62%
    10:00 +21°C° 0 mm 1 mps 751 mmHg 55%
    11:00 +21°C° 0 mm 1 mps 751 mmHg 54%
    12:00 +20°C° 0 mm 2 mps 751 mmHg 53%
    13:00 +20°C° 0 mm 2 mps 750 mmHg 52%
    14:00 +20°C° 0.1 mm 2 mps 750 mmHg 58%
    15:00 +19°C° 0.1 mm 3 mps 750 mmHg 63%
    16:00 +18°C° 0.1 mm 3 mps 750 mmHg 68%
    17:00 +18°C° 0 mm 2 mps 750 mmHg 72%
    18:00 +17°C° 0 mm 2 mps 750 mmHg 76%
    19:00 +16°C° 0 mm 1 mps 750 mmHg 79%
    20:00 +15°C° 0 mm 1 mps 751 mmHg 83%
    21:00 +14°C° 0 mm 1 mps 751 mmHg 88%
    22:00 +12°C° 0 mm 0 mps 751 mmHg 92%
    23:00 +11°C° 0 mm 0 mps 751 mmHg 92%

    29 May, Wednesday

    Time Temperature Precipitation Wind Pressure Humidity
    00:00 +12°C° 0 mm 1 mps 751 mmHg 93%
    01:00 +12°C° 0 mm 1 mps 752 mmHg 93%
    02:00 +12°C° 0 mm 1 mps 752 mmHg 94%
    03:00 +12°C° 0 mm 1 mps 752 mmHg 94%
    04:00 +11°C° 0 mm 1 mps 752 mmHg 95%
    05:00 +13°C° 0 mm 1 mps 753 mmHg 90%
    06:00 +14°C° 0 mm 2 mps 753 mmHg 85%
    07:00 +16°C° 0 mm 2 mps 753 mmHg 80%
    08:00 +16°C° 0.1 mm 3 mps 754 mmHg 78%
    09:00 +17°C° 0.1 mm 3 mps 754 mmHg 76%
    10:00 +17°C° 0.1 mm 4 mps 755 mmHg 74%
    11:00 +17°C° 0.3 mm 4 mps 755 mmHg 76%
    12:00 +15°C° 0.3 mm 4 mps 755 mmHg 77%
    13:00 +15°C° 0.3 mm 5 mps 755 mmHg 79%
    14:00 +14°C° 0.8 mm 4 mps 755 mmHg 82%
    15:00 +13°C° 0.8 mm 4 mps 756 mmHg 85%
    16:00 +13°C° 0.8 mm 3 mps 756 mmHg 88%
    17:00 +12°C° 0.6 mm 3 mps 757 mmHg 89%
    18:00 +13°C° 0.6 mm 2 mps 757 mmHg 90%
    19:00 +12°C° 0.6 mm 2 mps 758 mmHg 91%
    20:00 +12°C° 0.4 mm 1 mps 758 mmHg 91%
    21:00 +12°C° 0.4 mm 1 mps 759 mmHg 92%
    22:00 +10°C° 0.4 mm 0 mps 759 mmHg 92%
    23:00 +11°C° 0.1 mm 1 mps 760 mmHg 92%
    Show more